Location: Houhaj�rvi
(61.2667°N, 23.0167°E)
Time: 18:50:33
(UTC+00:00)

Cosmos 2237 - Pass Details

Date: 13 December 2019
Orbit: 847 x 856 km, 70.8° (Epoch: 17 January)

Event Time Altitude Azimuth Distance (km) Brightness Sun altitude
Rises 14:10:50 0° 203° (SSW) 3,421 8.6 -6.0°
Reaches altitude 10° 14:13:18 10° 200° (SSW) 2,488 7.7 -6.3°
Maximum altitude 14:18:55 60° 122° (ESE) 982 4.5 -6.8°
Drops below altitude 10° 14:24:33 10° 44° (NE) 2,500 6.0 -7.4°
Enters shadow 14:24:54 - 44° (NE) 2,628 6.1 -7.4°
